User: anonymous   Login
Location: *
(50.9167°S, 179.4000°W)
Time: 00:57:58
(UTC+00:00)
Language:

SL-4 R/B - Orbit

View from above orbital plane
View from above orbital plane
View from above satellite
View from above satellite

Ground track
Ground track

The orbit data is extracted from the following two-line orbital elements,

1 39679U 14021B   24144.56829131  .00010703  00000-0  40305-3 0  9998
2 39679  51.6125 245.5019 0137448 270.8549  87.6681 15.19227452556026
Epoch (UTC): 23 May 2024 13:38:20
Eccentricity: 0.0137448
inclination: 51.6125°
perigee height: 413 km
apogee height: 603 km
right ascension of ascending node: 245.5019°
argument of perigee: 270.8549°
revolutions per day: 15.19227452
mean anomaly at epoch: 87.6681°
orbit number at epoch: 55602

The dashed part of the orbit path shows where the satellite is in the earth's shadow,  

DLR